Location: Beetenbrück
(52.8113°N, 9.5946°E)
Time: 21:46:04
(UTC+00:00)

SL-16 R/B - Pass Details

Date: 14 April 2026
Orbit: 839 x 849 km, 71.0° (Epoch: 12 May)

Event Time Altitude Azimuth Distance (km) Brightness Sun altitude
Exits shadow 22:55:03 27° 257° (WSW) 1,582 3.5 -27.2°
Maximum altitude 22:57:43 44° 312° (NW) 1,160 3.1 -27.3°
Drops below altitude 10° 23:03:09 10° 24° (NNE) 2,479 5.4 -27.4°
Sets 23:05:44 0° 31° (NNE) 3,420 6.1 -27.4°
